Weather History for Ogden, UT

Change the Weather History Date:

Sunday, February 2, 2014

  Actual Average Record
Temperature  
Mean Temperature 28 °F -  
Max Temperature 33 °F 37 °F 56 °F (1963)
Min Temperature 23 °F 17 °F -8 °F (1950)
Degree Days  
Heating Degree Days 37    
Moisture  
Dew Point 17 °F    
Average Humidity 64    
Maximum Humidity 75    
Minimum Humidity 50    
Precipitation  
Precipitation 0.00 in - - ()
Sea Level Pressure  
Sea Level Pressure 30.04 in    
Wind  
Wind Speed 7 mph (South)    
Max Wind Speed 13 mph    
Max Gust Speed -    
Visibility 10 miles    
Events      
Averages and records for this station are not official NWS values.
T = Trace of Precipitation, MM = Missing Value Source: NWS Daily Summary

Daily Weather History Graph

Daily Weather History Graph

Search for Another Location

Airport:

Trip Planner

Search our weather history database for the weather conditions in past years. The results will help you decide how hot, cold, wet, or windy it might be!

Date:

Astronomy

Feb. 02, 2014 Rise Set
Actual Time 7:37 AM MST 5:46 PM MST
Civil Twilight 7:08 AM MST 6:15 PM MST
Nautical Twilight 6:35 AM MST 6:48 PM MST
Astronomical Twilight 6:03 AM MST 7:20 PM MST
Moon 9:04 AM MST (2/2) 9:37 PM MST (2/2)
Length of Visible Light 11h 06m
Length of Day
10h 08m
Waxing Crescent, 12% of the Moon is Illuminated
Feb 2
Waxing Crescent
Feb 6
First Quarter
Feb 14
Full
Feb 22
Last Quarter
Mar 1
New

Hourly Weather History & Observations

Time (MST) Temp. Windchill Dew Point Humidity Pressure Visibility Wind Dir Wind Speed Gust Speed Precip Events Conditions
12:53 AM 27.0 °F 20.5 °F 19.9 °F 75% 30.11 in 10.0 mi South 5.8 mph - N/A   Overcast
1:53 AM 27.0 °F 18.7 °F 19.9 °F 75% 30.11 in 10.0 mi South 8.1 mph - N/A   Overcast
2:53 AM 27.0 °F 20.5 °F 19.0 °F 72% 30.11 in 10.0 mi SSE 5.8 mph - N/A   Overcast
3:53 AM 26.1 °F 18.4 °F 19.0 °F 75% 30.10 in 10.0 mi South 6.9 mph - N/A   Overcast
4:53 AM 27.0 °F 19.5 °F 19.0 °F 72% 30.10 in 10.0 mi South 6.9 mph - N/A   Overcast
5:53 AM 27.0 °F 20.5 °F 19.0 °F 72% 30.10 in 10.0 mi South 5.8 mph - N/A   Overcast
6:53 AM 27.0 °F 19.5 °F 18.0 °F 69% 30.10 in 10.0 mi SSE 6.9 mph - N/A   Overcast
7:53 AM 27.0 °F 19.5 °F 18.0 °F 69% 30.10 in 10.0 mi South 6.9 mph - N/A   Overcast
8:53 AM 27.0 °F 18.7 °F 18.0 °F 69% 30.10 in 10.0 mi SSE 8.1 mph - N/A   Overcast
9:53 AM 28.9 °F 22.8 °F 18.0 °F 64% 30.08 in 10.0 mi SSE 5.8 mph - N/A   Overcast
10:53 AM 28.9 °F 20.4 °F 19.0 °F 67% 30.07 in 10.0 mi South 9.2 mph - N/A   Overcast
11:53 AM 32.0 °F 23.0 °F 19.9 °F 61% 30.05 in 10.0 mi South 11.5 mph - N/A   Mostly Cloudy
12:53 PM 33.1 °F 24.4 °F 16.0 °F 50% 30.02 in 10.0 mi South 11.5 mph - N/A   Mostly Cloudy
1:53 PM 32.0 °F 23.6 °F 16.0 °F 52% 30.00 in 10.0 mi SSW 10.4 mph - N/A   Overcast
2:53 PM 32.0 °F 22.5 °F 16.0 °F 52% 29.98 in 10.0 mi SSW 12.7 mph - N/A   Mostly Cloudy
3:53 PM 32.0 °F 23.6 °F 15.1 °F 50% 29.96 in 10.0 mi South 10.4 mph - N/A   Partly Cloudy
4:53 PM 30.9 °F 25.2 °F 14.0 °F 50% 29.96 in 10.0 mi SSW 5.8 mph - N/A   Clear
5:53 PM 28.0 °F 22.8 °F 14.0 °F 56% 29.97 in 10.0 mi South 4.6 mph - N/A   Clear
6:53 PM 27.0 °F 23.0 °F 14.0 °F 58% 29.98 in 10.0 mi SSE 3.5 mph - N/A   Clear
7:53 PM 26.1 °F 20.5 °F 14.0 °F 60% 29.97 in 10.0 mi SSE 4.6 mph - N/A   Clear
8:53 PM 24.1 °F 17.0 °F 15.1 °F 69% 29.97 in 10.0 mi South 5.8 mph - N/A   Clear
9:53 PM 23.0 °F 14.7 °F 14.0 °F 68% 29.97 in 10.0 mi South 6.9 mph - N/A   Clear
10:53 PM 23.0 °F 13.9 °F 12.9 °F 65% 29.98 in 10.0 mi SSE 8.1 mph - N/A   Scattered Clouds
11:53 PM 23.0 °F 13.9 °F 12.9 °F 65% 29.96 in 10.0 mi South 8.1 mph - N/A   Clear